Location: Boston
(42.3580°N, 71.0600°W)
Time: 15:32:23
(UTC-04:00)

Envisat - Pass Details

Date: 13 October 2017
Orbit: 764 x 766 km, 98.2° (Epoch: 21 October)

Event Time Altitude Azimuth Distance (km) Brightness Sun altitude
Exits shadow 19:16:46 19° 73° (ENE) 1,752 4.3 -14.0°
Maximum altitude 19:17:25 20° 63° (ENE) 1,730 4.3 -14.2°
Drops below altitude 10° 19:21:00 10° 18° (NNE) 2,310 5.3 -14.8°
Sets 19:23:52 0° 2° (N) 3,241 6.3 -15.3°
